Blue Sluice Lake Weather Center

Moon Phase Calendar



Blue Sluice Lake Water Level
Online Cameras

 


      

Current Conditions in Sandy Springs
4/13/2021 9:17:49 AM

62°F
Feels Like 61
Clear
Humidity
67%
Pressure
30.06"
Wind
2.1 mph (NNE)
Dew Point
51°F
UV Index
1/10 (Low)
Visibility
6 mi

Hourly Forecast

Date & Time Tue, Apr 13
9:00 AM
Tue, Apr 13
10:00 AM
Tue, Apr 13
11:00 AM
Tue, Apr 13
12:00 PM
Tue, Apr 13
1:00 PM
Tue, Apr 13
2:00 PM
Tue, Apr 13
3:00 PM
Tue, Apr 13
4:00 PM
Tue, Apr 13
5:00 PM
Tue, Apr 13
6:00 PM
Tue, Apr 13
7:00 PM
Tue, Apr 13
8:00 PM
Tue, Apr 13
9:00 PM
Tue, Apr 13
10:00 PM
Tue, Apr 13
11:00 PM
Wed, Apr 14
12:00 AM
Wed, Apr 14
1:00 AM
Wed, Apr 14
2:00 AM
Wed, Apr 14
3:00 AM
Wed, Apr 14
4:00 AM
Wed, Apr 14
5:00 AM
Wed, Apr 14
6:00 AM
Wed, Apr 14
7:00 AM
Wed, Apr 14
8:00 AM
Wed, Apr 14
9:00 AM
Wed, Apr 14
10:00 AM
Wed, Apr 14
11:00 AM
Wed, Apr 14
12:00 PM
Wed, Apr 14
1:00 PM
Wed, Apr 14
2:00 PM
Wed, Apr 14
3:00 PM
Wed, Apr 14
4:00 PM
Wed, Apr 14
5:00 PM
Wed, Apr 14
6:00 PM
Wed, Apr 14
7:00 PM
Wed, Apr 14
8:00 PM
Wed, Apr 14
9:00 PM
Wed, Apr 14
10:00 PM
Wed, Apr 14
11:00 PM
Thu, Apr 15
12:00 AM
Thu, Apr 15
1:00 AM
Thu, Apr 15
2:00 AM
Thu, Apr 15
3:00 AM
Thu, Apr 15
4:00 AM
Thu, Apr 15
5:00 AM
Thu, Apr 15
6:00 AM
Thu, Apr 15
7:00 AM
Thu, Apr 15
8:00 AM
Condition
Clear

Clouds

Clouds

Clouds

Clouds

Clouds

Clouds

Clouds

Clouds

Clouds

Clouds

Clouds

Clouds

Clouds

Clouds

Clouds

Clouds

Clouds

Clouds

Clouds

Clouds

Clouds

Clouds

Clouds

Clouds

Clouds

Clouds

Rain

Clouds

Clouds

Rain

Rain

Clouds

Clouds

Clouds

Rain

Clouds

Rain

Rain

Rain

Clouds

Clouds

Clouds

Clouds

Clouds

Clouds

Clouds

Clouds
Temperature 62°F64°F67°F72°F77°F83°F85°F85°F83°F81°F78°F75°F73°F72°F70°F68°F67°F66°F65°F64°F63°F62°F61°F61°F65°F70°F73°F74°F71°F71°F70°F72°F74°F73°F70°F66°F64°F63°F61°F60°F60°F60°F60°F58°F57°F56°F55°F55°F
Feels Like 61°F63°F66°F71°F77°F81°F82°F82°F81°F80°F77°F74°F72°F71°F69°F67°F66°F65°F64°F63°F62°F61°F60°F60°F64°F69°F72°F73°F70°F70°F70°F72°F73°F72°F69°F65°F63°F62°F60°F60°F60°F60°F59°F58°F56°F56°F54°F53°F
Cloudiness 1%15%32%39%57%74%77%68%78%84%85%87%93%95%96%97%98%98%100%100%100%100%100%98%17%34%55%66%73%77%100%100%100%100%100%100%100%100%100%100%100%100%100%100%100%100%100%100%
Visibility 6 mi6 mi6 mi6 mi6 mi6 mi6 mi6 mi6 mi6 mi6 mi6 mi6 mi6 mi6 mi6 mi6 mi6 mi6 mi6 mi6 mi6 mi6 mi6 mi6 mi6 mi6 mi6 mi6 mi6 mi6 mi6 mi6 mi6 mi6 mi6 mi6 mi6 mi6 mi6 mi6 mi6 mi6 mi6 mi6 mi6 mi6 mi6 mi
Precipitation 0%0%0%0%0%0%0%0%0%0%0%0%0%0%0%0%0%0%0%0%0%0%0%0%0%0%0%20%4%0%33%46%46%46%42%42%16%26%38%57%61%57%20%12%10%13%19%4%
Humidity 67%64%58%49%38%26%22%21%23%27%34%38%42%43%48%53%54%55%57%59%62%65%69%68%59%50%43%41%49%55%64%60%46%45%52%62%68%74%86%90%91%92%92%90%88%83%79%75%
Dew Point 51°F51°F52°F52°F50°F45°F43°F41°F42°F44°F48°F48°F49°F48°F49°F50°F50°F50°F50°F49°F49°F50°F50°F51°F51°F50°F50°F49°F50°F54°F58°F57°F52°F51°F52°F52°F53°F54°F56°F57°F57°F57°F57°F56°F53°F51°F49°F47°F
Pressure 30.06"30.06"30.06"30.03"30.03"30"30"29.97"29.97"29.97"30"29.97"30"30.03"30.06"30.06"30.06"30.06"30.06"30.06"30.06"30.06"30.06"30.06"30.06"30.06"30.03"30.03"30.03"30.03"30"29.97"29.94"29.94"29.94"29.94"29.97"29.97"29.97"29.94"29.94"29.91"29.88"29.88"29.88"29.91"29.94"29.94"
Wind Speed 2.1 mph1.6 mph2.8 mph4.1 mph4.7 mph6.1 mph8.6 mph9.6 mph10.8 mph11.6 mph8.7 mph1.4 mph2.5 mph3.7 mph3.9 mph3.4 mph3.4 mph3.4 mph2.8 mph2.2 mph2.1 mph2.4 mph2.6 mph1.7 mph0.7 mph2.8 mph3.8 mph6.8 mph8.4 mph8.1 mph8.7 mph10.9 mph11.9 mph11 mph9.9 mph9.3 mph8.9 mph8.6 mph7.5 mph7.5 mph7.2 mph7.3 mph7.6 mph8 mph8.7 mph8.8 mph10 mph7.8 mph
Wind
Direction
25°
NNE
96°
E
147°
SSE
169°
S
216°
SW
244°
WSW
262°
W
273°
W
283°
WNW
292°
WNW
291°
WNW
268°
W
269°
W
273°
W
304°
NW
306°
NW
284°
WNW
278°
W
290°
WNW
289°
WNW
330°
NNW
340°
NNW

N
16°
NNE
357°
N
260°
W
243°
WSW
233°
SW
232°
SW
240°
WSW
251°
WSW
260°
W
272°
W
277°
W
291°
WNW
296°
WNW
290°
WNW
289°
WNW
284°
WNW
281°
W
273°
W
274°
W
285°
WNW
304°
NW
312°
NW
300°
WNW
304°
NW
300°
WNW

Daily Forecast

Date High Low Precip. Humidity
Today
Apr 13

Clouds
85 °F
62 °F
0%
38%
Wednesday
Apr 14

Rain
74 °F
61 °F
46%
49%
Thursday
Apr 15

Rain
69 °F
55 °F
61%
35%
Friday
Apr 16

Clouds
66 °F
49 °F
0%
28%
Saturday
Apr 17

Rain
59 °F
54 °F
100%
97%
Sunday
Apr 18

Clouds
63 °F
49 °F
0%
44%
Monday
Apr 19

Clear
71 °F
46 °F
0%
29%
Tuesday
Apr 20

Clouds
64 °F
54 °F
0%
45%
Wednesday
Apr 21

Clear
62 °F
43 °F
0%
28%
Thursday
Apr 22

Clear
71 °F
47 °F
0%
25%
Friday
Apr 23

Clouds
73 °F
53 °F
0%
29%
Saturday
Apr 24

Clouds
73 °F
54 °F
0%
33%
Sunday
Apr 25

Rain
65 °F
58 °F
84%
71%
Monday
Apr 26

Rain
76 °F
62 °F
100%
93%
Tuesday
Apr 27

Rain
86 °F
65 °F
77%
51%
Wednesday
Apr 28

Clouds
89 °F
67 °F
0%
35%

Temperature 8-14 Day Outlook



Precipitation 8-14 Day Outlook




Quick Links
Blue Sluice Lake News
Blue Sluice Lake Photos
Blue Sluice Lake Videos




About Us
Contact Us
Site Map
Search Site
Advertise With Us
   
BlueSluice.LakesOnline.com
THE BLUE SLUICE LAKE WEBSITE

Copyright 2021, Lakes Online
Privacy    |    Legal